Location: Akho
(42.3047°N, 44.1844°E)
Time: 20:58:53
(UTC+00:00)

CZ-4C R/B - Visible Passes

Search period start: 25 September 2020 00:00
Search period end: 05 October 2020 00:00
Orbit: 409 x 491 km, 97.7° (Epoch: 24 September)

Date Brightness Start Highest point End Pass type
(mag) Time Alt. Az. Time Alt. Az. Time Alt. Az.
25 Sep 5.5 00:12:42 21° NE 00:12:42 21° NE 00:14:33 10° NNE visible
25 Sep 5.1 01:46:22 13° NW 01:46:22 13° NW 01:46:55 10° NW visible
26 Sep 4.8 01:11:25 21° NNW 01:11:25 21° NNW 01:12:41 10° NNW visible
27 Sep 5.2 00:36:27 20° N 00:36:27 20° N 00:37:42 10° N visible
28 Sep 6.2 00:01:30 12° NNE 00:01:30 12° NNE 00:02:00 10° NNE visible
29 Sep 5.5 01:00:13 13° NNW 01:00:13 13° NNW 01:00:35 10° NNW visible
30 Sep 6.0 00:25:16 11° N 00:25:16 11° N 00:25:21 10° N visible
